Weather History for KSLC - May, 2013

Change the Weather History Date:

Saturday, May 11, 2013

  Actual Average Record
Temperature  
Mean Temperature 70 °F 58 °F  
Max Temperature 84 °F 70 °F 91 °F (1960)
Min Temperature 55 °F 47 °F 30 °F (1999)
Degree Days  
Heating Degree Days 0 8  
Month to date heating degree days 72 100  
Since 1 July heating degree days 5390 5456  
Cooling Degree Days 5 1  
Month to date cooling degree days 6 10  
Year to date cooling degree days 6 14  
Growing Degree Days 20 (Base 50)    
Moisture  
Dew Point 34 °F    
Average Humidity 33    
Maximum Humidity 51    
Minimum Humidity 15    
Precipitation  
Precipitation 0.00 in 0.07 in 1.20 in (1983)
Month to date precipitation 0.09 0.76  
Year to date precipitation 4.95 7.04  
Snow  
Snow 0.00 in 0.00 in 5.00 in (1983)
Month to date snowfall T 0.2  
Since 1 July snowfall 69.9 56.1  
Snow Depth 0.00 in    
Sea Level Pressure  
Sea Level Pressure 30.12 in    
Wind  
Wind Speed 6 mph (SSE)    
Max Wind Speed 15 mph    
Max Gust Speed 20 mph    
Visibility 10 miles    
Events      
T = Trace of Precipitation, MM = Missing Value Source: NWS Daily Summary

Daily Weather History Graph

Daily Weather History Graph

Search for Another Location

Airport or City:

Trip Planner

Search our weather history database for the weather conditions in past years. The results will help you decide how hot, cold, wet, or windy it might be!

Date:

Astronomy

May. 11, 2013 Rise Set
Actual Time 6:14 AM MDT 8:34 PM MDT
Civil Twilight 5:43 AM MDT 9:05 PM MDT
Nautical Twilight 5:05 AM MDT 9:43 PM MDT
Astronomical Twilight 4:23 AM MDT 10:25 PM MDT
Moon 7:24 AM MDT (5/11) 10:18 PM MDT (5/11)
Length of Visible Light 15h 21m
Length of Day
14h 20m
Waxing Crescent, 3% of the Moon is Illuminated
May 11
Waxing Crescent
May 17
First Quarter
May 24
Full
May 31
Last Quarter
Jun 8
New

Hourly Weather History & Observations

Time (MDT) Temp. Dew Point Humidity Pressure Visibility Wind Dir Wind Speed Gust Speed Precip Events Conditions
12:53 AM 61.0 °F 39.0 °F 44% 30.12 in 10.0 mi South 6.9 mph - N/A   Partly Cloudy
1:53 AM 64.0 °F 37.0 °F 37% 30.12 in 10.0 mi SSE 12.7 mph - N/A   Partly Cloudy
2:53 AM 61.0 °F 37.0 °F 41% 30.12 in 10.0 mi SE 9.2 mph - N/A   Clear
3:53 AM 59.0 °F 37.0 °F 44% 30.14 in 10.0 mi South 6.9 mph - N/A   Clear
4:53 AM 57.9 °F 37.9 °F 47% 30.13 in 10.0 mi SSE 5.8 mph - N/A   Clear
5:53 AM 57.0 °F 37.9 °F 49% 30.14 in 10.0 mi SSE 4.6 mph - N/A   Partly Cloudy
6:53 AM 55.9 °F 39.9 °F 55% 30.16 in 10.0 mi SSE 5.8 mph - N/A   Partly Cloudy
7:53 AM 62.1 °F 41.0 °F 46% 30.17 in 10.0 mi ESE 5.8 mph - N/A   Partly Cloudy
8:53 AM 66.9 °F 39.0 °F 36% 30.17 in 10.0 mi SE 4.6 mph - N/A   Scattered Clouds
9:53 AM 71.1 °F 37.9 °F 30% 30.16 in 10.0 mi ENE 3.5 mph - N/A   Scattered Clouds
10:53 AM 75.0 °F 34.0 °F 22% 30.16 in 10.0 mi Calm Calm - N/A   Scattered Clouds
11:53 AM 79.0 °F 34.0 °F 20% 30.15 in 10.0 mi Variable 3.5 mph - N/A   Scattered Clouds
12:53 PM 80.1 °F 33.1 °F 18% 30.13 in 10.0 mi Calm Calm - N/A   Mostly Cloudy
1:53 PM 81.0 °F 36.0 °F 20% 30.12 in 10.0 mi WNW 9.2 mph - N/A   Mostly Cloudy
2:53 PM 81.0 °F 32.0 °F 17% 30.12 in 10.0 mi Variable 6.9 mph - N/A   Mostly Cloudy
3:53 PM 82.9 °F 32.0 °F 16% 30.10 in 10.0 mi NNW 8.1 mph 18.4 mph N/A   Mostly Cloudy
4:53 PM 82.0 °F 28.9 °F 14% 30.09 in 10.0 mi Variable 4.6 mph - N/A   Mostly Cloudy
5:53 PM 81.0 °F 27.0 °F 14% 30.09 in 10.0 mi NW 10.4 mph - N/A   Mostly Cloudy
6:53 PM 81.0 °F 25.0 °F 13% 30.08 in 10.0 mi North 9.2 mph - N/A   Mostly Cloudy
7:53 PM 75.0 °F 30.0 °F 19% 30.08 in 10.0 mi West 5.8 mph - N/A   Scattered Clouds
8:53 PM 66.9 °F 33.1 °F 28% 30.09 in 10.0 mi West 3.5 mph - N/A   Partly Cloudy
9:53 PM 69.1 °F 30.9 °F 24% 30.08 in 10.0 mi SE 5.8 mph - N/A   Partly Cloudy
10:53 PM 63.0 °F 33.1 °F 33% 30.10 in 10.0 mi SSE 6.9 mph - N/A   Clear
11:53 PM 63.0 °F 30.9 °F 30% 30.10 in 10.0 mi South 8.1 mph - N/A   Clear